GW3874 Weather Reports


time (UTC)temp
F
wind
direction
speed
knots
gust
knots
rain 1hr
in
rain 24hr
in
rain mn
in
humidity
%
barometer
mb
20260505153035 0 0.0 0.0 0.00 0.00 0.00 1001.7
20260505151545 0 0.0 0.0 0.00 0.00 0.00 1001.9
20260505124524 54 221 3.5 9.6 0.00 0.00 0.00 75 1003.3
20260505123026 52 199 2.6 7.0 0.00 0.00 0.00 76 1003.2
20260505121515 51 217 2.6 10.4 0.00 0.00 0.00 78 1003.2
20260505120016 50 164 4.3 9.6 0.00 0.00 0.00 81 1003.4
20260505114522 49 172 4.3 10.4 0.00 0.00 0.00 83 1003.8
20260505113025 47 161 2.6 9.6 0.00 0.00 0.00 86 1004.0
20260505111528 46 205 3.5 6.1 0.00 0.00 0.00 89 1004.1
20260505100028 39 175 1.7 4.3 0.00 0.00 0.00 94 1004.1
20260505094516 38 172 0.0 1.7 0.00 0.00 0.00 93 1004.0
20260505093029 38 182 0.0 0.9 0.00 0.00 0.00 93 1004.0
20260505091528 38 182 0.0 0.9 0.00 0.00 0.00 92 1004.1
20260505090008 39 133 0.0 0.0 0.00 0.00 0.00 92 1004.1
20260505084512 40 133 0.0 0.9 0.00 0.00 0.00 92 1004.2
20260505083002 40 133 0.0 1.7 0.00 0.00 0.00 92 1004.3
20260505081505 41 178 0.0 2.6 0.00 0.00 0.00 91 1004.5
20260505080005 41 178 0.0 1.7 0.00 0.00 0.00 91 1004.5
20260505074512 42 178 0.0 3.5 0.00 0.00 0.00 92 1004.8
20260505073018 41 278 0.9 3.5 0.00 0.00 0.00 91 1005.1
20260505071503 41 168 1.7 4.3 0.00 0.00 0.00 93 1004.9
20260505070006 40 138 0.9 3.5 0.00 0.00 0.00 91 1004.7
20260505064511 41 176 0.9 1.7 0.00 0.00 0.00 90 1004.8
20260505063014 41 177 0.0 2.6 0.00 0.00 0.00 89 1004.8
20260505061519 41 177 0.9 2.6 0.00 0.00 0.00 89 1004.9
20260505060011 41 172 0.9 4.3 0.00 0.00 0.00 89 1005.1
20260505054506 41 183 1.7 4.3 0.00 0.00 0.00 89 1004.9
20260505053012 41 168 3.5 5.2 0.00 0.00 0.00 88 1004.8
20260505051518 41 180 1.7 3.5 0.00 0.00 0.00 87 1004.8
20260505041512 42 168 0.9 3.5 0.00 0.00 0.00 86 1005.1
20260505040017 42 169 0.9 3.5 0.00 0.00 0.00 85 1005.0
20260505034523 42 174 0.9 3.5 0.00 0.00 0.00 85 1004.8
20260505033035 42 180 0.9 3.5 0.00 0.00 0.00 85 1004.8
20260505031510 42 178 1.7 3.5 0.00 0.00 0.00 84 1004.8
20260505030017 42 177 0.9 3.5 0.00 0.00 0.00 84 1004.8
20260505024522 42 225 0.0 2.6 0.00 0.00 0.00 83 1004.6
20260505023025 42 215 0.9 2.6 0.00 0.00 0.00 83 1004.7
20260505021529 42 206 0.9 3.5 0.00 0.00 0.00 82 1004.7
20260505020014 42 218 0.9 2.6 0.00 0.00 0.00 82 1004.8
20260505014517 42 210 0.9 3.5 0.00 0.00 0.00 81 1004.6
20260505013019 43 221 0.9 5.2 0.00 0.00 0.00 80 1004.4
20260505011504 43 220 1.7 3.5 0.00 0.00 0.00 79 1004.2
20260505010007 44 234 1.7 3.5 0.00 0.00 0.00 78 1004.2
20260505004518 44 227 1.7 7.0 0.00 0.00 0.00 76 1003.9
20260505003002 45 223 2.6 7.0 0.00 0.00 0.00 75 1003.7
20260505001504 45 200 2.6 7.0 0.00 0.00 0.00 74 1003.4
20260505000007 46 215 3.5 6.1 0.00 0.00 0.00 72 1003.1
20260504234505 47 223 2.6 7.0 0.00 0.00 0.00 70 1002.8
20260504233006 48 281 2.6 9.6 0.00 0.00 0.00 67 1002.6
20260504231511 49 247 2.6 10.4 0.00 0.00 0.00 66 1002.4
20260504230004 49 220 5.2 11.3 0.00 0.00 0.00 67 1002.3
20260504224507 49 281 4.3 11.3 0.00 0.01 0.00 67 1002.1
20260504223010 50 287 6.1 12.2 0.00 0.01 0.00 66 1002.1
20260504221510 50 225 4.3 13.0 0.00 0.01 0.00 65 1001.9
20260504220004 51 288 4.3 11.3 0.00 0.01 0.00 64 1001.8
20260504214504 51 187 5.2 10.4 0.00 0.02 0.00 64 1001.8
20260504213009 52 273 5.2 13.9 0.00 0.02 0.00 62 1001.7
20260504211513 51 273 5.2 13.0 0.00 0.02 0.00 64 1001.4
20260504210014 50 217 5.2 12.2 0.00 0.02 0.00 64 1001.5
20260504204519 51 227 6.1 11.3 0.00 0.03 0.00 62 1001.4
20260504203013 51 234 3.5 10.4 0.00 0.03 0.00 62 1001.4
20260504201510 50 279 3.5 7.0 0.00 0.03 0.00 64 1001.5
20260504200016 50 237 2.6 10.4 0.00 0.03 0.00 65 1001.6
20260504194514 47 207 5.2 11.3 0.00 0.04 0.00 67 1001.7
20260504193022 48 197 4.3 9.6 0.00 0.04 0.00 65 1001.8
20260504191511 48 263 5.2 14.8 0.00 0.05 0.00 61 1001.8
20260504190015 49 277 4.3 11.3 0.00 0.07 0.00 57 1001.8
20260504184520 49 196 6.1 15.6 0.00 0.07 0.00 54 1001.7
20260504183018 50 267 7.0 18.2 0.00 0.08 0.00 50 1001.6
20260504181520 51 340 4.3 15.6 0.00 0.09 0.00 44 1001.5
20260504180014 52 319 7.8 20.0 0.00 0.09 0.00 40 1001.4
20260504174516 53 269 4.3 15.6 0.00 0.09 0.00 37 1000.9
20260504173022 54 277 7.8 18.2 0.00 0.10 0.00 35 1000.8
20260504171534 55 242 5.2 14.8 0.00 0.11 0.00 33 1000.7